Location: Unspecified
(0.0000°N, 0.0000°E)
Time: 23:47:15
(UTC+00:00)

STARLINK-32315 - Pass Details

Date: 26 April 2025
Orbit: 474 x 476 km, 53.2° (Epoch: 16 May)

Event Time Altitude Azimuth Distance (km) Brightness Sun altitude
Rises 18:42:12 0° 290° (WNW) 2,510 9.2 -10.8°
Reaches altitude 10° 18:45:43 10° 254° (WSW) 1,637 7.0 -11.6°
Maximum altitude 18:46:56 11° 235° (SW) 1,558 6.5 -11.9°
Drops below altitude 10° 18:48:08 10° 216° (SW) 1,639 6.3 -12.2°
Sets 18:51:41 0° 180° (S) 2,520 6.9 -13.1°
